Regional Weather Roundup
Issued by NWS Sioux Falls, SD

Home | Current Version | Previous Version | Text Only | Print | Product List | Glossary On
Versions: 1 2 3 4 5 6 7 8 9 10 11 12 13 14 15 16 17 18 19 20 21 22 23 24 25 26 27 28 29 30 31 32 33 34 35 36 37 38 39 40 41 42 43 44 45 46 47 48 49 50
000
ASUS43 KFSD 130810
RWRFSD

WEATHER ROUNDUP FOR SE SOUTH DAKOTA/SW MINNESOTA/NW IOWA
NATIONAL WEATHER SERVICE SIOUX FALLS SD
300 AM CDT SUN JUL 13 2014

NOTE: "FAIR" INDICATES FEW OR NO CLOUDS BELOW 12,000 FEET WITH NO
SIGNIFICANT WEATHER AND OR OBSTRUCTIONS TO VISIBILITY.


SDZ038>040-050-052>070-130900-
SOUTHEAST SOUTH DAKOTA

CITY           SKY/WX    TMP DP  RH WIND       PRES   REMARKS
CHAMBERLAIN    CLEAR     63  60  89 CALM      30.06F
HURON          CLEAR     65  62  90 W8        30.01F
MADISON        FAIR      66  66 100 NW8       30.02S
MITCHELL       CLEAR     66  61  84 NW6       30.02F
SIOUX FALLS    CLEAR     67  64  90 W3        30.01S
WINNER         FAIR      66  61  84 SW7       30.08F
YANKTON        CLEAR     66  64  94 CALM      30.03S
$$

MNZ071-072-080-081-089-090-097-098-130900-
SOUTHWEST MINNESOTA

CITY           SKY/WX    TMP DP  RH WIND       PRES   REMARKS
FAIRMONT       CLEAR     66  61  82 W8        29.97S
JACKSON        CLEAR     63  61  94 W5        29.99F
LUVERNE        CLEAR     64  63  94 CALM      30.02R
MARSHALL       PTCLDY    70  63  78 W9        29.96R
MONTEVIDEO     CLEAR     64  63  94 N8        29.96S
PIPESTONE      PTCLDY    64  63  94 W3        30.01S
REDWOOD FALLS  PTCLDY    68  64  87 W10       29.93S
TRACY          PTCLDY    69  64  84 W6        29.98S
WINDOM         PTCLDY    64  63  94 W5        29.98S
WORTHINGTON    CLEAR     66  63  88 W6        30.01S
$$

IAZ001>003-012>014-020>022-031-032-NEZ013-014-SDZ071-130900-
NORTHWEST IOWA

CITY           SKY/WX    TMP DP  RH WIND       PRES   REMARKS
CHEROKEE       FOG       63  63 100 CALM      30.02R VSB 1/4
DENISON        FOG       63  63 100 CALM      30.01R VSB 1
ESTHERVILLE    CLEAR     63  62  97 W6        29.98F
LE MARS        CLEAR     63  63 100 CALM      30.02S
ORANGE CITY    CLEAR     64  63  94 W3        30.02S FOG
SHELDON        CLEAR     63  63 100 CALM      30.01R
SIOUX CITY     CLEAR     64  64 100 SW3       30.03R FOG
SPENCER        CLEAR     62  60  93 W6        30.01R
STORM LAKE     CLEAR     66  66 100 CALM      30.03R
$$

ABBREVIATIONS USED IN REMARKS
   TC - TEMPERATURE IN CELSIUS
  WCI - WIND CHILL INDEX
   HX - HEAT INDEX
  VSB - VISIBILITY



USA.gov is the U.S. government's official web portal to all federal, state and local government web resources and services.